Weather History for KAIZ - November, 2012

Change the Weather History Date:

Friday, November 9, 2012

  Actual Average Record
Temperature  
Mean Temperature 62 °F -  
Max Temperature 75 °F 54 °F 80 °F (2006)
Min Temperature 50 °F 37 °F 26 °F (2001)
Degree Days  
Heating Degree Days 2    
Growing Degree Days 12 (Base 50)    
Moisture  
Dew Point 47 °F    
Average Humidity 59    
Maximum Humidity 68    
Minimum Humidity 47    
Precipitation  
Precipitation 0.00 in - - ()
Sea Level Pressure  
Sea Level Pressure 29.96 in    
Wind  
Wind Speed 11 mph (South)    
Max Wind Speed 16 mph    
Max Gust Speed 25 mph    
Visibility 10 miles    
Events      
Averages and records for this station are not official NWS values.
T = Trace of Precipitation, MM = Missing Value Source: NWS Daily Summary

Daily Weather History Graph

Daily Weather History Graph

Search for Another Location

Airport or City:

Trip Planner

Search our weather history database for the weather conditions in past years. The results will help you decide how hot, cold, wet, or windy it might be!

Date:

Astronomy

Nov. 09, 2012 Rise Set
Actual Time 6:45 AM CST 5:02 PM CST
Civil Twilight 6:17 AM CST 5:30 PM CST
Nautical Twilight 5:45 AM CST 6:01 PM CST
Astronomical Twilight 5:14 AM CST 6:32 PM CST
Moon 1:48 AM CST (11/9) 2:12 PM CST (11/9)
Length of Visible Light 11h 12m
Length of Day
10h 17m
Waning Crescent, 23% of the Moon is Illuminated
Nov 9
Waning Crescent
Nov 13
New
Nov 20
First Quarter
Nov 28
Full
Dec 6
Last Quarter

Hourly Weather History & Observations

Time (CST) Temp. Dew Point Humidity Pressure Visibility Wind Dir Wind Speed Gust Speed Precip Events Conditions
12:15 AM 51.8 °F 35.6 °F 54% 30.05 in 10.0 mi South 10.4 mph - N/A   Clear
12:35 AM 50.0 °F 35.6 °F 58% 30.04 in 10.0 mi South 10.4 mph - N/A   Clear
12:55 AM 50.0 °F 35.6 °F 58% 30.04 in 10.0 mi South 10.4 mph - N/A   Clear
1:15 AM 50.0 °F 37.4 °F 62% 30.03 in 10.0 mi South 12.7 mph - N/A   Clear
1:35 AM 50.0 °F 37.4 °F 62% 30.03 in 10.0 mi SSE 9.2 mph - N/A   Scattered Clouds
1:55 AM 50.0 °F 37.4 °F 62% 30.03 in 10.0 mi SSE 10.4 mph - N/A   Scattered Clouds
2:15 AM 50.0 °F 37.4 °F 62% 30.02 in 10.0 mi South 11.5 mph - N/A   Mostly Cloudy
2:35 AM 50.0 °F 37.4 °F 62% 30.02 in 10.0 mi South 9.2 mph - N/A   Overcast
2:55 AM 50.0 °F 37.4 °F 62% 30.02 in 10.0 mi South 10.4 mph 17.3 mph N/A   Mostly Cloudy
3:15 AM 50.0 °F 37.4 °F 62% 30.02 in 10.0 mi South 10.4 mph - N/A   Mostly Cloudy
3:35 AM 51.8 °F 37.4 °F 58% 30.01 in 10.0 mi South 10.4 mph - N/A   Mostly Cloudy
3:55 AM 51.8 °F 37.4 °F 58% 30.01 in 10.0 mi South 10.4 mph 16.1 mph N/A   Overcast
4:15 AM 51.8 °F 37.4 °F 58% 30.01 in 10.0 mi South 9.2 mph - N/A   Overcast
4:35 AM 51.8 °F 37.4 °F 58% 30.00 in 10.0 mi South 10.4 mph - N/A   Mostly Cloudy
4:55 AM 51.8 °F 37.4 °F 58% 30.01 in 10.0 mi South 11.5 mph 16.1 mph N/A   Mostly Cloudy
5:15 AM 51.8 °F 37.4 °F 58% 30.00 in 10.0 mi South 8.1 mph - N/A   Overcast
5:35 AM 51.8 °F 37.4 °F 58% 30.00 in 10.0 mi South 9.2 mph 16.1 mph N/A   Scattered Clouds
5:55 AM 51.8 °F 37.4 °F 58% 30.00 in 10.0 mi South 8.1 mph - N/A   Clear
6:15 AM 51.8 °F 39.2 °F 62% 30.00 in 10.0 mi South 8.1 mph - N/A   Partly Cloudy
6:35 AM 51.8 °F 39.2 °F 62% 30.00 in 10.0 mi South 9.2 mph - N/A   Partly Cloudy
6:55 AM 51.8 °F 39.2 °F 62% 30.00 in 10.0 mi South 9.2 mph - N/A   Clear
7:35 AM 51.8 °F 39.2 °F 62% 30.00 in 10.0 mi South 9.2 mph - N/A   Clear
7:55 AM 51.8 °F 39.2 °F 62% 30.00 in 10.0 mi South 9.2 mph - N/A   Clear
8:15 AM 53.6 °F 39.2 °F 58% 30.01 in 10.0 mi South 10.4 mph - N/A   Clear
8:35 AM 55.4 °F 41.0 °F 58% 30.01 in 10.0 mi South 10.4 mph - N/A   Clear
8:55 AM 57.2 °F 42.8 °F 59% 30.00 in 10.0 mi South 15.0 mph - N/A   Clear
9:15 AM 59.0 °F 44.6 °F 59% 30.00 in 10.0 mi South 11.5 mph - N/A   Clear
9:35 AM 60.8 °F 46.4 °F 59% 29.99 in 10.0 mi SSW 16.1 mph - N/A   Clear
9:55 AM 62.6 °F 46.4 °F 55% 29.99 in 10.0 mi South 13.8 mph - N/A   Clear
10:15 AM 64.4 °F 46.4 °F 52% 29.99 in 10.0 mi South 13.8 mph 18.4 mph N/A   Clear
10:35 AM 66.2 °F 48.2 °F 52% 29.98 in 10.0 mi South 11.5 mph 19.6 mph N/A   Clear
10:55 AM 66.2 °F 50.0 °F 56% 29.98 in 10.0 mi SSW 12.7 mph 16.1 mph N/A   Clear
11:15 AM 69.8 °F 51.8 °F 53% 29.97 in 10.0 mi South 10.4 mph - N/A   Clear
11:35 AM 71.6 °F 53.6 °F 53% 29.96 in 10.0 mi SSW 15.0 mph 19.6 mph N/A   Clear
11:55 AM 71.6 °F 53.6 °F 53% 29.95 in 10.0 mi SW 11.5 mph 25.3 mph N/A   Clear
12:15 PM 73.4 °F 53.6 °F 50% 29.94 in 10.0 mi SW 15.0 mph 23.0 mph N/A   Clear
12:35 PM 71.6 °F 53.6 °F 53% 29.94 in 10.0 mi SW 15.0 mph 19.6 mph N/A   Clear
12:55 PM 73.4 °F 53.6 °F 50% 29.93 in 10.0 mi SSW 11.5 mph - N/A   Clear
1:15 PM 73.4 °F 53.6 °F 50% 29.92 in 10.0 mi SSW 11.5 mph 23.0 mph N/A   Clear
1:35 PM 73.4 °F 53.6 °F 50% 29.91 in 10.0 mi SW 10.4 mph - N/A   Clear
1:55 PM 75.2 °F 55.4 °F 50% 29.91 in 10.0 mi SSW 16.1 mph 21.9 mph N/A   Clear
2:15 PM 73.4 °F 53.6 °F 50% 29.90 in 10.0 mi South 8.1 mph 17.3 mph N/A   Clear
2:35 PM 73.4 °F 53.6 °F 50% 29.90 in 10.0 mi South 13.8 mph 18.4 mph N/A   Clear
2:55 PM 75.2 °F 53.6 °F 47% 29.89 in 10.0 mi South 11.5 mph 19.6 mph N/A   Clear
3:15 PM 73.4 °F 53.6 °F 50% 29.89 in 10.0 mi South 16.1 mph 20.7 mph N/A   Clear
3:35 PM 73.4 °F 53.6 °F 50% 29.89 in 10.0 mi South 10.4 mph 16.1 mph N/A   Clear
3:55 PM 73.4 °F 55.4 °F 53% 29.89 in 10.0 mi South 11.5 mph 18.4 mph N/A   Clear
4:15 PM 71.6 °F 53.6 °F 53% 29.90 in 10.0 mi South 12.7 mph 21.9 mph N/A   Clear
4:35 PM 71.6 °F 53.6 °F 53% 29.90 in 10.0 mi South 9.2 mph 19.6 mph N/A   Clear
4:55 PM 69.8 °F 53.6 °F 56% 29.90 in 10.0 mi South 11.5 mph 23.0 mph N/A   Clear
5:15 PM 69.8 °F 53.6 °F 56% 29.90 in 10.0 mi South 10.4 mph - N/A   Clear
5:35 PM 68.0 °F 51.8 °F 56% 29.90 in 10.0 mi South 13.8 mph 24.2 mph N/A   Clear
5:55 PM 66.2 °F 51.8 °F 60% 29.90 in 10.0 mi South 12.7 mph 19.6 mph N/A   Clear
6:15 PM 66.2 °F 51.8 °F 60% 29.91 in 10.0 mi South 15.0 mph 20.7 mph N/A   Clear
6:35 PM 66.2 °F 51.8 °F 60% 29.91 in 10.0 mi South 11.5 mph 18.4 mph N/A   Clear
6:55 PM 64.4 °F 51.8 °F 64% 29.92 in 10.0 mi SSE 10.4 mph 16.1 mph N/A   Clear
7:15 PM 64.4 °F 51.8 °F 64% 29.92 in 10.0 mi South 12.7 mph 18.4 mph N/A   Clear
7:35 PM 64.4 °F 51.8 °F 64% 29.93 in 10.0 mi South 8.1 mph 20.7 mph N/A   Clear
7:55 PM 62.6 °F 51.8 °F 68% 29.93 in 10.0 mi South 15.0 mph 18.4 mph N/A   Clear
8:15 PM 62.6 °F 51.8 °F 68% 29.94 in 10.0 mi South 9.2 mph 16.1 mph N/A   Clear
8:35 PM 62.6 °F 51.8 °F 68% 29.94 in 10.0 mi South 11.5 mph - N/A   Clear
8:55 PM 62.6 °F 51.8 °F 68% 29.95 in 10.0 mi South 10.4 mph 17.3 mph N/A   Clear
9:15 PM 62.6 °F 51.8 °F 68% 29.95 in 10.0 mi South 12.7 mph - N/A   Clear
9:35 PM 62.6 °F 51.8 °F 68% 29.96 in 10.0 mi South 11.5 mph - N/A   Clear
9:55 PM 62.6 °F 51.8 °F 68% 29.96 in 10.0 mi South 12.7 mph 18.4 mph N/A   Clear
10:15 PM 62.6 °F 51.8 °F 68% 29.96 in 10.0 mi South 10.4 mph - N/A   Clear
10:35 PM 62.6 °F 50.0 °F 63% 29.96 in 10.0 mi South 10.4 mph - N/A   Clear
10:55 PM 60.8 °F 50.0 °F 68% 29.96 in 10.0 mi South 12.7 mph 19.6 mph N/A   Clear
11:15 PM 60.8 °F 48.2 °F 63% 29.96 in 10.0 mi South 10.4 mph 18.4 mph N/A   Clear
11:35 PM 60.8 °F 48.2 °F 63% 29.96 in 10.0 mi South 11.5 mph 17.3 mph N/A   Clear
11:55 PM 60.8 °F 46.4 °F 59% 29.96 in 10.0 mi South 10.4 mph 18.4 mph N/A   Clear